Flag for United Kingdom Weather past 2 weeks in Swansea, Wales, United Kingdom

Now
46 °F

Cool.


Feels Like: 40 °F
Forecast: 44 / 51 °F
Wind: 12 mph from West

Location: Mumbles

Current Time: Mar 30, 2015 at 2:24:04 AM

Latest Report: Mar 30, 2015 at 1:00 AM


Visibility: N/A

Pressure: 29.70 "Hg

Humidity: 74%

Dew point: 38 °F

Location of SwanseaLocation

Historic Weather in Swansea — Graph

°F

Swansea temperature yesterday

Maximum temperature yesterday: 52 °F (at 3:00 PM)
Minimum temperature yesterday: 47 °F (at 5:00 AM)
Average temperature yesterday: 49 °F

Past Weeks' High & Low Weather Summary

 TemperatureHumidityPressure
High57 °F (Mar 20, 4:00 PM)100% (Mar 28, 4:00 AM)30.59 "Hg (Mar 28, 4:00 AM)
Low37 °F (Mar 25, 6:00 AM)45% (Mar 26, 3:00 PM)29.44 "Hg (Mar 29, 11:00 AM)
Average45 °F80%30.15 "Hg
* Reported Mar 14 11:00 PM — Midnight between Mar 29 and Mar 30, Swansea, Weather by CustomWeather, © 2015

Note: Actual official high and low records may vary slightly from our data, if they occured in-between our weather recording intervals... More about our weather records

Advertising

Swansea weather history for previous 24 hours

 ConditionsComfort  
Time TempWeatherWind HumidityBarometerVisibility
12:00 AM
Mon, Mar 30
47 °FCool.16 mph79%29.68 "HgN/A
11:00 PM
Sun, Mar 29
48 °FCool.17 mph85%29.65 "HgN/A
9:00 PM48 °FCool.16 mph82%29.63 "HgN/A
8:00 PM49 °FCool.18 mph76%29.61 "HgN/A
7:00 PM49 °FCool.25 mph82%29.59 "HgN/A
6:00 PM49 °FCool.28 mph82%29.57 "HgN/A
5:00 PM50 °FCool.29 mph82%29.56 "HgN/A
4:00 PM51 °FCool.26 mph74%29.54 "HgN/A
3:00 PM52 °FCool.33 mph80%29.50 "HgN/A
2:00 PM51 °FCool.37 mph87%29.47 "HgN/A
1:00 PM51 °FCool.45 mph88%29.44 "HgN/A
12:00 PM51 °FCool.46 mph90%29.44 "HgN/A
11:00 AM50 °FCool.47 mph91%29.44 "HgN/A
10:00 AM50 °FCool.41 mph94%29.47 "HgN/A
9:00 AM49 °FCool.43 mph96%29.50 "HgN/A
8:00 AM49 °FCool.38 mph97%29.54 "HgN/A
7:00 AM48 °FCool.35 mph98%29.57 "HgN/A
6:00 AM47 °FCool.17 mph97%29.63 "HgN/A
5:00 AM47 °FCool.21 mph97%29.67 "HgN/A
3:00 AM48 °FCool.26 mph92%29.75 "HgN/A
2:00 AM48 °FCool.28 mph92%29.76 "HgN/A
Weather by CustomWeather, © 2015

See weather overviewHow to use our weather pages